GW4833 Weather Reports


time (UTC)temp
F
wind
direction
speed
knots
gust
knots
rain 1hr
in
rain 24hr
in
rain mn
in
humidity
%
barometer
mb
20260508071320 47 294 0.9 0.9 0.00 0.00 0.00 99 1014.4
20260508070817 48 278 1.7 1.7 0.00 0.00 0.00 99 1014.2
20260508070316 48 257 0.0 0.0 0.00 0.00 0.00 99 1014.5
20260508065813 48 257 0.0 0.0 0.00 0.00 0.00 99 1014.5
20260508065310 48 257 0.0 0.0 0.00 0.00 0.00 99 1014.5
20260508064809 48 257 0.0 0.0 0.00 0.00 0.00 99 1014.3
20260508064306 48 257 0.0 0.0 0.00 0.00 0.00 99 1014.3
20260508063803 48 265 1.7 1.7 0.00 0.00 0.00 99 1014.2
20260508063301 48 262 1.7 1.7 0.00 0.00 0.00 99 1014.3
20260508062758 48 269 1.7 1.7 0.00 0.00 0.00 99 1014.2
20260508062256 48 279 1.7 1.7 0.00 0.00 0.00 99 1014.5
20260508061752 48 252 1.7 1.7 0.00 0.00 0.00 99 1014.5
20260508061249 48 284 0.9 1.7 0.00 0.00 0.00 99 1014.3
20260508060746 48 304 0.9 1.7 0.00 0.00 0.00 99 1014.5
20260508060244 48 299 0.0 1.7 0.00 0.00 0.00 99 1014.3
20260508055739 48 304 0.0 0.9 0.00 0.00 0.00 99 1014.3
20260508055236 48 284 0.9 0.9 0.00 0.00 0.00 99 1014.2
20260508054733 49 290 0.9 0.9 0.00 0.00 0.00 99 1014.4
20260508054231 49 295 0.9 1.7 0.00 0.00 0.00 99 1014.5
20260508053728 49 308 0.9 1.7 0.00 0.00 0.00 99 1014.3
20260508053225 49 290 0.0 0.9 0.00 0.00 0.00 99 1014.2
20260508052722 49 336 0.0 0.0 0.00 0.00 0.00 99 1014.2
20260508052219 49 287 0.0 0.9 0.00 0.00 0.00 99 1014.2
20260508051715 49 283 0.0 1.7 0.00 0.00 0.00 99 1014.3
20260508051211 50 277 1.7 1.7 0.00 0.00 0.00 99 1014.2
20260508050708 49 310 0.0 1.7 0.00 0.00 0.00 99 1014.1
20260508050206 50 269 0.0 1.7 0.00 0.00 0.00 99 1014.2
20260508045705 50 25 0.0 0.9 0.00 0.00 0.00 99 1014.1
20260508045204 50 277 0.9 1.7 0.00 0.00 0.00 99 1014.1
20260508044701 50 272 1.7 1.7 0.00 0.00 0.00 99 1014.3
20260508044157 50 273 1.7 1.7 0.00 0.00 0.00 99 1014.0
20260508043653 50 271 0.9 1.7 0.00 0.00 0.00 99 1014.0
20260508043152 50 269 0.9 1.7 0.00 0.00 0.00 99 1014.1
20260508042648 50 310 0.0 1.7 0.00 0.00 0.00 99 1013.9
20260508042145 50 310 0.0 1.7 0.00 0.00 0.00 99 1013.8
20260508041641 50 269 0.0 0.9 0.00 0.00 0.00 99 1013.8
20260508041139 50 304 0.0 0.0 0.00 0.00 0.00 99 1013.7
20260508040635 50 304 0.0 0.0 0.00 0.00 0.00 99 1013.9
20260508040133 50 304 0.0 0.9 0.00 0.00 0.00 99 1013.9
20260508035630 50 298 0.0 1.7 0.00 0.63 0.63 99 1013.7
20260508035127 50 249 0.0 0.9 0.00 0.63 0.63 99 1013.8
20260508034624 50 310 0.0 0.9 0.00 0.63 0.63 99 1013.7
20260508034121 50 318 0.0 0.9 0.00 0.63 0.63 99 1013.8
20260508033618 50 256 0.0 0.9 0.00 0.63 0.63 99 1013.8
20260508033116 50 326 0.0 0.9 0.00 0.63 0.63 99 1013.7
20260508032612 50 326 0.0 0.9 0.00 0.63 0.63 99 1013.6
20260508032110 50 285 0.9 1.7 0.00 0.63 0.63 99 1013.6
20260508031607 50 295 0.9 1.7 0.00 0.63 0.63 99 1013.4
20260508031103 50 276 1.7 1.7 0.00 0.63 0.63 99 1013.5
20260508030559 50 282 2.6 2.6 0.00 0.63 0.63 99 1013.4
20260508030058 50 284 0.9 1.7 0.00 0.63 0.63 99 1013.4
20260508025553 50 253 0.9 0.9 0.00 0.63 0.63 99 1013.5
20260508025050 50 285 0.9 1.7 0.00 0.63 0.63 99 1013.6
20260508024546 50 261 0.0 0.9 0.00 0.63 0.63 99 1013.3
20260508024044 51 290 0.0 0.9 0.00 0.63 0.63 99 1013.3
20260508023540 51 293 0.0 1.7 0.00 0.63 0.63 99 1013.3
20260508023038 51 273 0.9 0.9 0.00 0.63 0.63 99 1013.4
20260508022533 51 290 0.0 0.0 0.00 0.63 0.63 99 1013.2
20260508022031 51 290 0.0 0.0 0.00 0.63 0.63 99 1013.0
20260508021527 52 289 0.0 0.9 0.00 0.63 0.63 99 1013.1
20260508021022 52 38 0.0 0.0 0.00 0.63 0.63 99 1013.0
20260508020520 52 283 0.0 0.9 0.00 0.63 0.63 99 1012.8
20260508020018 52 336 0.0 0.0 0.00 0.63 0.63 99 1013.1
20260508015515 52 269 0.0 1.7 0.00 0.63 0.63 99 1012.8
20260508015012 52 218 0.0 2.6 0.00 0.63 0.63 99 1012.7
20260508014509 52 220 0.9 1.7 0.00 0.63 0.63 99 1012.4
20260508014005 53 353 0.0 0.0 0.00 0.63 0.63 99 1012.5
20260508013501 53 269 0.0 0.0 0.00 0.63 0.63 99 1012.5
20260508012958 53 269 0.0 0.9 0.00 0.63 0.63 99 1012.5
20260508012455 53 304 0.0 0.0 0.00 0.63 0.63 99 1012.2
20260508011952 54 230 0.0 0.9 0.00 0.63 0.63 99 1012.1
20260508011450 54 129 0.0 0.0 0.00 0.63 0.63 99 1011.9
20260508010947 54 230 0.0 0.9 0.00 0.63 0.63 99 1012.0
20260508010444 54 230 0.0 0.9 0.00 0.63 0.63 99 1011.8
20260508005941 54 246 0.0 1.7 0.00 0.63 0.63 99 1011.7
20260508005438 54 339 0.0 0.9 0.00 0.63 0.63 99 1011.5
20260508004934 55 336 0.0 0.9 0.00 0.63 0.63 99 1011.5
20260508004431 55 168 0.0 1.7 0.00 0.63 0.63 99 1011.4
20260508003928 55 309 0.0 0.0 0.00 0.63 0.63 99 1011.7
20260508003425 55 309 0.0 0.0 0.00 0.63 0.63 99 1011.7
20260508002922 55 352 0.0 0.0 0.00 0.63 0.63 99 1011.7
20260508002419 55 32 0.0 0.0 0.00 0.63 0.63 99 1011.8
20260508001915 55 89 0.0 0.9 0.00 0.63 0.63 99 1011.7
20260508001411 55 88 1.7 2.6 0.00 0.63 0.63 99 1011.5
20260508000908 55 55 0.0 1.7 0.00 0.63 0.63 99 1011.5
20260508000404 56 53 0.0 0.0 0.00 0.63 0.63 99 1011.5
20260507235900 56 6 0.0 0.0 0.00 0.63 0.63 99 1011.8
20260507235357 56 230 0.0 0.0 0.00 0.63 0.63 99 1011.7
20260507234854 56 230 0.0 0.0 0.00 0.63 0.63 99 1011.4
20260507234351 56 230 0.0 0.0 0.00 0.63 0.63 99 1011.4
20260507233847 56 69 0.0 1.7 0.00 0.63 0.63 99 1011.2
20260507233345 56 5 0.0 0.0 0.00 0.63 0.63 99 1011.2
20260507232843 56 230 0.0 0.9 0.00 0.63 0.63 99 1011.0
20260507232339 56 214 0.0 0.0 0.00 0.63 0.63 99 1011.0
20260507231837 56 129 1.7 2.6 0.00 0.63 0.63 99 1010.8
20260507231333 56 135 0.0 2.6 0.00 0.63 0.63 99 1010.6
20260507230829 56 132 1.7 1.7 0.00 0.63 0.63 99 1010.6
20260507230327 56 60 1.7 3.5 0.00 0.63 0.63 99 1010.7
20260507225826 56 144 1.7 1.7 0.00 0.63 0.63 99 1010.6
20260507225323 56 95 3.5 3.5 0.00 0.63 0.63 99 1010.6
20260507224819 56 115 3.5 4.3 0.00 0.63 0.63 99 1010.6
20260507224316 56 224 0.0 1.7 0.00 0.63 0.63 99 1010.6
20260507223812 56 77 0.0 0.9 0.00 0.63 0.63 99 1010.3
20260507223308 56 123 1.7 3.5 0.00 0.63 0.63 99 1010.1
20260507222806 56 82 0.0 3.5 0.02 0.63 0.63 99 1010.2
20260507222305 56 88 2.6 4.3 0.07 0.63 0.63 99 1010.1
20260507221759 56 99 3.5 5.2 0.07 0.62 0.62 99 1010.1
20260507221255 56 108 1.7 3.5 0.05 0.61 0.61 99 1010.4
20260507220751 56 38 1.7 2.6 0.02 0.61 0.61 99 1010.3
20260507220250 56 100 0.0 0.9 0.00 0.61 0.61 99 1010.3
20260507215746 56 129 0.0 0.0 0.00 0.61 0.61 99 1009.9
20260507215243 56 76 1.7 5.2 0.00 0.61 0.61 99 1010.0
20260507214740 56 137 1.7 1.7 0.00 0.61 0.61 99 1009.8
20260507214238 56 234 0.0 2.6 0.00 0.61 0.61 99 1010.1
20260507213733 57 144 2.6 2.6 0.00 0.61 0.61 99 1009.9
20260507213231 57 92 1.7 5.2 0.00 0.61 0.61 99 1009.8
20260507212727 57 62 7.0 7.0 0.02 0.61 0.61 99 1009.5
20260507212223 57 192 1.7 5.2 0.07 0.61 0.61 99 1009.7
20260507211720 57 107 1.7 3.5 0.07 0.60 0.60 99 1009.7
20260507211215 56 27 1.7 3.5 0.05 0.59 0.59 99 1010.0
20260507210713 55 74 1.7 4.3 0.05 0.59 0.59 99 1010.0
20260507210210 56 218 1.7 4.3 0.02 0.59 0.59 99 1009.7
20260507205706 56 22 1.7 6.1 0.02 0.58 0.58 99 1009.7
20260507205203 56 136 1.7 2.6 0.02 0.58 0.58 99 1009.8
20260507204659 56 76 0.0 1.7 0.02 0.58 0.58 99 1009.9
20260507204157 56 40 3.5 3.5 0.07 0.58 0.58 99 1009.8
20260507203655 56 275 0.0 2.6 0.21 0.57 0.57 99 1009.6
20260507203152 56 65 2.6 5.2 0.64 0.57 0.57 99 1009.1
20260507202647 56 98 4.3 5.2 0.71 0.54 0.54 99 1010.0
20260507202144 56 65 2.6 8.7 0.28 0.44 0.44 99 1009.9
20260507201645 57 138 1.7 4.3 0.12 0.41 0.41 98 1009.9
20260507201142 57 109 3.5 7.8 0.02 0.39 0.39 97 1009.5
20260507200638 57 54 0.0 3.5 0.00 0.39 0.39 97 1009.9
20260507200134 57 86 1.7 5.2 0.00 0.39 0.39 96 1009.4
20260507195631 58 218 3.5 3.5 0.00 0.39 0.39 96 1009.6
20260507195128 58 21 2.6 7.0 0.00 0.39 0.39 96 1009.3
20260507194626 58 32 6.1 10.4 0.00 0.39 0.39 96 1009.4
20260507194120 58 194 0.9 6.1 0.00 0.39 0.39 96 1009.5
20260507193618 59 54 4.3 7.8 0.00 0.39 0.39 96 1009.5
20260507193115 60 122 1.7 2.6 0.00 0.39 0.39 97 1009.4
20260507192611 61 47 1.7 1.7 0.00 0.39 0.39 96 1009.3
20260507192108 61 88 0.9 5.2 0.00 0.39 0.39 95 1009.2
20260507191603 62 79 0.0 1.7 0.00 0.39 0.39 97 1009.3
20260507191100 61 93 0.9 4.3 0.00 0.39 0.39 97 1009.2
20260507190558 60 17 1.7 3.5 0.00 0.39 0.39 97 1009.3
20260507190056 60 121 3.5 5.2 0.00 0.39 0.39 97 1009.4
20260507185554 60 97 0.9 8.7 0.00 0.39 0.39 97 1009.6
20260507185051 60 40 5.2 5.2 0.00 0.39 0.39 98 1009.6
20260507184549 60 15 1.7 4.3 0.00 0.39 0.39 98 1009.4
20260507184047 61 139 4.3 6.1 0.00 0.39 0.39 99 1009.6
20260507183542 61 169 2.6 7.8 0.00 0.39 0.39 99 1009.7
20260507183039 61 64 3.5 5.2 0.00 0.39 0.39 99 1009.5
20260507182536 61 124 1.7 5.2 0.00 0.39 0.39 99 1009.5
20260507182032 62 83 1.7 2.6 0.00 0.39 0.39 99 1009.7
20260507181529 62 153 0.0 3.5 0.02 0.39 0.39 99 1009.7
20260507181025 62 137 4.3 4.3 0.02 0.39 0.39 99 1009.4
20260507180521 62 85 1.7 3.5 0.02 0.39 0.39 99 1009.4
20260507180019 62 85 1.7 6.1 0.05 0.39 0.39 98 1009.5
20260507175515 63 93 0.9 3.5 0.02 0.38 0.38 98 1009.6
20260507175012 63 80 0.9 2.6 0.00 0.38 0.38 98 1009.7
20260507174509 63 64 0.0 3.5 0.00 0.38 0.38 98 1009.7
20260507174007 64 84 0.0 4.3 0.00 0.38 0.38 98 1009.5
20260507173504 64 67 1.7 3.5 0.00 0.38 0.38 97 1009.6
20260507173001 64 38 1.7 3.5 0.00 0.38 0.38 97 1009.5
20260507172457 64 252 1.7 1.7 0.00 0.38 0.38 97 1009.6
20260507171954 64 247 1.7 1.7 0.00 0.38 0.38 97 1009.7
20260507171449 65 134 1.7 5.2 0.00 0.38 0.38 96 1009.6
20260507170947 67 60 0.9 1.7 0.00 0.38 0.38 94 1009.2
20260507170443 68 238 0.9 2.6 0.00 0.38 0.38 94 1009.4
20260507165940 67 157 0.0 2.6 0.00 0.38 0.38 95 1009.5
20260507165436 67 262 0.9 1.7 0.00 0.38 0.38 96 1009.6
20260507164932 66 180 1.7 3.5 0.00 0.38 0.38 97 1009.9
20260507164429 66 147 0.0 2.6 0.00 0.38 0.38 97 1009.4
20260507163926 66 89 0.0 2.6 0.00 0.38 0.38 98 1009.2
20260507163423 67 226 1.7 3.5 0.00 0.38 0.38 97 1009.1
20260507162920 66 138 0.0 1.7 0.00 0.38 0.38 99 1009.1
20260507162415 66 208 1.7 3.5 0.00 0.38 0.38 99 1008.9
20260507161913 66 141 0.0 2.6 0.00 0.38 0.38 99 1009.0
20260507161409 67 22 0.0 1.7 0.00 0.38 0.38 99 1009.1
20260507160906 65 214 0.0 0.0 0.00 0.38 0.38 99 1009.1
20260507160401 65 329 0.0 0.9 0.00 0.38 0.38 99 1009.5
20260507155858 64 71 0.9 1.7 0.00 0.38 0.38 99 1009.3
20260507155354 64 71 0.9 1.7 0.00 0.38 0.38 99 1009.3
20260507154850 64 71 0.9 1.7 0.02 0.38 0.38 99 1009.8
20260507154348 64 71 0.9 1.7 0.02 0.38 0.38 99 1009.8
20260507153845 64 71 0.9 1.7 0.00 0.37 0.37 99 1009.8
20260507153341 64 251 1.7 2.6 0.00 0.37 0.37 99 1010.2
20260507152838 64 251 1.7 2.6 0.00 0.37 0.37 99 1010.0
20260507152334 64 251 1.7 2.6 0.02 0.37 0.37 99 1009.9
20260507151830 64 251 1.7 2.6 0.02 0.37 0.37 99 1010.0
20260507151327 64 251 1.7 2.6 0.00 0.37 0.37 99 1010.5
20260507150824 64 251 1.7 2.6 0.00 0.37 0.37 99 1010.3
20260507150320 64 205 1.7 5.2 0.00 0.37 0.37 99 1010.7
20260507145816 64 247 2.6 3.5 0.00 0.37 0.37 99 1010.8
20260507145313 65 250 1.7 2.6 0.02 0.37 0.37 99 1010.6
20260507144810 64 281 0.9 0.9 0.00 0.37 0.37 99 1009.9
20260507144307 64 281 0.9 0.9 0.00 0.37 0.37 99 1009.8
20260507143804 64 281 0.9 0.9 0.02 0.37 0.37 99 1009.7
20260507143301 64 281 0.9 0.9 0.05 0.36 0.36 99 1009.9
20260507142757 64 297 1.7 1.7 0.07 0.36 0.36 99 1010.1
20260507142254 64 321 1.7 2.6 0.09 0.35 0.35 99 1010.2
20260507141750 63 313 1.7 3.5 0.09 0.35 0.35 99 1010.2
20260507141247 63 268 1.7 3.5 0.02 0.34 0.34 99 1010.3
20260507140743 63 204 1.7 1.7 0.02 0.33 0.33 99 1010.1
20260507140241 64 288 1.7 1.7 0.07 0.33 0.33 99 1010.1
20260507135738 63 134 0.9 1.7 0.07 0.33 0.33 99 1010.1
20260507135235 63 134 0.9 1.7 0.02 0.32 0.32 99 1009.3
20260507134731 63 134 0.9 1.7 0.00 0.32 0.32 99 1009.2
20260507134228 63 134 0.9 1.7 0.05 0.32 0.32 99 1009.1
20260507133724 63 134 0.9 1.7 0.05 0.31 0.31 99 1009.2
20260507133221 63 134 0.9 1.7 0.05 0.31 0.31 99 1009.4
20260507132718 63 134 0.9 1.7 0.02 0.30 0.30 99 1009.6
20260507132215 63 134 0.9 1.7 0.05 0.30 0.30 99 1010.0
20260507131711 63 134 0.9 1.7 0.07 0.29 0.29 99 1009.9
20260507131209 63 241 1.7 1.7 0.09 0.29 0.29 99 1010.2
20260507130705 63 262 1.7 2.6 0.07 0.28 0.28 99 1010.5
20260507130203 63 214 0.9 1.7 0.12 0.28 0.28 99 1010.6
20260507125702 63 262 1.7 2.6 0.17 0.27 0.27 99 1010.8
20260507125159 63 252 3.5 4.3 0.21 0.26 0.26 99 1010.9
20260507124655 63 258 1.7 1.7 0.21 0.24 0.24 99 1011.0
20260507124153 63 232 3.5 3.5 0.19 0.22 0.22 99 1011.3
20260507123651 63 221 3.5 3.5 0.12 0.20 0.20 99 1011.2
20260507123148 63 220 1.7 2.6 0.05 0.19 0.19 99 1011.1
20260507122643 63 180 0.0 3.5 0.05 0.18 0.18 99 1010.7
20260507122139 63 233 1.7 1.7 0.09 0.18 0.18 99 1010.8
20260507121635 63 238 1.7 1.7 0.14 0.17 0.17 99 1010.7
20260507121131 63 116 0.9 2.6 0.14 0.16 0.16 99 1010.6
20260507120627 64 229 1.7 5.2 0.19 0.15 0.15 99 1010.7
20260507120124 63 269 0.0 0.0 0.24 0.14 0.14 99 1010.7
20260507115621 63 269 0.0 0.0 0.26 0.12 0.12 99 1010.5
20260507115116 63 269 0.0 0.0 0.12 0.09 0.09 99 1010.4
20260507114612 63 269 0.0 0.0 0.00 0.07 0.07 99 1010.5
20260507114110 0 0.0 0.0 0.00 0.07 0.07 1010.8
20260507113607 0 0.0 0.0 0.02 0.07 0.07 1010.1
20260507113104 0 0.0 0.0 0.02 0.07 0.07 1010.0
20260507112602 0 0.0 0.0 0.00 0.07 0.07 1010.4
20260507112058 0 0.0 0.0 0.00 0.07 0.07 1010.5
20260507111555 0 0.0 0.0 0.02 0.07 0.07 1009.9
20260507111052 0 0.0 0.0 0.02 0.07 0.07 1009.8
20260507110548 0 0.0 0.0 0.00 0.07 0.07 1010.0
20260507110045 0 0.0 0.0 0.02 0.07 0.07 1010.0
20260507105542 63 282 1.7 1.7 0.02 0.07 0.07 99 1010.1
20260507105038 63 282 1.7 1.7 0.00 0.06 0.06 99 1010.3
20260507104536 63 282 1.7 1.7 0.00 0.06 0.06 99 1010.2
20260507104032 63 282 1.7 1.7 0.00 0.06 0.06 99 1010.1
20260507103528 63 282 1.7 1.7 0.00 0.06 0.06 99 1010.2
20260507103025 63 282 1.7 1.7 0.00 0.06 0.06 99 1010.4
20260507102521 63 282 1.7 1.7 0.00 0.06 0.06 99 1010.2
20260507102017 63 282 1.7 1.7 0.00 0.06 0.06 99 1010.1
20260507101513 63 282 1.7 1.7 0.00 0.06 0.06 99 1010.3
20260507101010 63 282 1.7 1.7 0.00 0.06 0.06 99 1010.1
20260507100507 63 282 1.7 1.7 0.00 0.06 0.06 99 1010.4
20260507100005 63 282 1.7 1.7 0.00 0.06 0.06 99 1010.1
20260507095503 63 269 1.7 1.7 0.00 0.06 0.06 99 1009.9
20260507094959 63 269 1.7 1.7 0.00 0.06 0.06 99 1010.1
20260507094455 63 269 1.7 1.7 0.02 0.06 0.06 99 1010.3
20260507093953 63 269 1.7 1.7 0.02 0.06 0.06 99 1010.7
20260507093450 63 342 1.7 1.7 0.00 0.06 0.06 99 1010.4
20260507092948 63 322 0.0 0.0 0.00 0.06 0.06 99 1010.4
20260507092444 63 322 0.0 0.0 0.05 0.06 0.06 99 1010.1
20260507091941 63 322 0.0 0.0 0.07 0.06 0.06 99 1010.2
20260507091438 63 322 0.0 0.0 0.00 0.05 0.05 99 1010.4
20260507090934 63 322 0.0 0.0 0.00 0.05 0.05 99 1010.5
20260507090430 63 322 0.0 0.0 0.00 0.05 0.05 99 1010.1
20260507085926 63 5 1.7 1.7 0.00 0.05 0.05 99 1010.0
20260507085424 63 148 0.0 1.7 0.00 0.05 0.05 99 1009.6
20260507084921 63 22 0.0 0.0 0.00 0.05 0.05 99 1009.8
20260507084418 63 83 1.7 1.7 0.00 0.05 0.05 99 1009.9
20260507083915 63 98 0.0 0.9 0.00 0.05 0.05 99 1009.9
20260507083411 63 29 0.0 0.0 0.00 0.05 0.05 99 1009.8
20260507082907 63 29 0.0 0.0 0.00 0.05 0.05 99 1010.1
20260507082403 63 29 0.0 0.0 0.00 0.05 0.05 99 1010.1
20260507081900 63 29 0.0 0.0 0.00 0.05 0.05 99 1010.1
20260507081356 63 29 0.0 0.0 0.00 0.05 0.05 99 1010.2
20260507080853 63 53 1.7 1.7 0.02 0.05 0.05 99 1010.2
20260507080349 63 53 1.7 1.7 0.02 0.05 0.05 99 1010.3
20260507075845 63 53 1.7 1.7 0.02 0.04 0.04 99 1010.3
20260507075341 63 53 1.7 1.7 0.02 0.04 0.04 99 1010.3
20260507074837 63 81 1.7 1.7 0.00 0.04 0.04 99 1010.6
20260507074335 63 173 0.0 0.0 0.00 0.04 0.04 99 1010.8
20260507073832 63 269 0.0 0.0 0.00 0.04 0.04 99 1011.0
20260507073329 63 34 0.0 0.0 0.00 0.04 0.04 99 1011.2
20260507072826 63 34 0.0 0.0 0.00 0.04 0.04 99 1011.0
20260507072324 63 34 0.0 0.0 0.00 0.04 0.04 99 1011.2
20260507071821 63 34 0.0 0.0 0.00 0.04 0.04 99 1011.0